GFSSE_prec_cloud_003.txt.gz
Cloud_Cover
100 100 100 100 100 100 100 100 100 100 100 100 100 100 100 98 58 17 78 86 100 100 100 99 23 41 2 100 5 0 0 88 98 100 100 14 5 1 1 0 0 0 2
96 99 100 100 100 100 100 100 100 100 100 100 100 100 100 51 100 100 63 100 100 100 97 35 21 3 5 20 5 0 0 100 100 100 100 100 100 2 0 1 2 0 0
76 91 100 100 100 100 100 100 100 100 100 100 100 95 33 88 100 99 100 100 99 36 6 32 5 5 2 4 5 5 3 98 100 100 100 100 100 6 0 1 0 8 0
62 91 94 100 97 68 100 100 100 100 100 100 95 50 59 100 100 100 100 83 8 5 5 5 5 0 0 0 2 3 44 100 100 100 100 100 100 78 6 0 0 2 1
97 97 61 91 100 99 93 100 100 75 56 100 98 100 100 100 100 56 17 5 5 10 34 2 0 0 0 0 0 2 100 100 69 57 77 100 100 100 100 5 0 8 0
97 86 100 60 100 71 5 100 100 100 100 100 100 100 91 9 0 5 1 3 5 5 4 0 0 0 0 3 0 30 100 100 82 46 29 98 99 86 6 0 0 0 0
96 100 100 100 100 100 100 100 100 100 100 100 8 0 0 1 0 0 3 1 5 3 5 2 0 1 1 3 3 42 97 99 24 5 15 7 55 4 9 16 0 8 0
36 81 98 100 100 80 46 99 84 27 0 0 0 0 0 0 0 1 1 4 5 5 5 5 0 0 0 5 3 14 55 6 5 34 68 5 5 6 5 96 0 34 6
75 28 14 35 39 18 1 3 0 0 0 0 0 0 0 5 13 5 5 27 5 5 94 30 0 0 0 3 5 2 74 3 5 5 59 35 5 5 5 100 7 8 0
93 100 74 73 0 0 0 0 0 0 4 5 2 0 0 20 81 8 5 5 82 13 94 62 2 4 2 0 0 72 58 41 100 86 96 57 62 23 14 13 10 0 9
16 23 22 20 15 17 7 0 0 4 5 2 0 0 0 1 1 5 5 19 100 28 100 85 49 9 77 5 1 14 100 74 6 13 29 72 92 91 21 5 5 39 1
36 42 18 23 22 23 2 0 3 0 0 0 0 0 0 0 0 89 99 27 26 11 46 13 100 100 22 1 5 5 5 37 81 44 40 99 100 94 96 65 5 5 1
3 24 12 16 21 22 14 26 32 26 18 13 0 0 0 0 1 91 60 68 13 5 21 12 22 91 99 11 5 12 5 36 4 10 34 27 94 50 100 70 86 5 0
4 2 0 4 25 23 18 35 20 27 23 26 16 0 1 12 0 11 88 46 98 9 5 5 5 15 5 39 8 5 4 82 3 7 5 5 70 8 100 100 94 72 4
0 0 0 1 9 0 11 17 13 32 9 4 5 0 4 19 5 5 11 99 28 27 10 5 5 5 8 5 7 35 4 3 76 99 32 3 8 72 83 100 47 55 16
0 0 0 7 0 0 2 19 6 2 0 0 2 0 0 18 12 26 24 24 5 5 5 5 5 5 30 93 5 12 4 5 5 74 97 67 5 6 77 82 100 100 100
0 0 0 0 0 0 0 4 4 3 3 0 0 0 0 1 0 0 2 5 5 6 53 31 23 87 100 18 5 5 5 5 5 20 27 5 8 6 5 15 24 100 100
0 0 0 0 0 0 0 0 0 0 0 0 0 0 0 0 0 0 19 6 0 1 3 2 0 0 21 92 38 5 7 4 5 14 5 5 27 6 5 5 12 23 100
0 0 0 0 0 0 0 0 7 0 0 0 0 0 0 0 0 6 23 14 10 39 12 0 0 2 9 1 1 1 13 8 10 15 60 56 8 8 5 5 95 64 95
0 0 0 0 0 0 8 6 2 0 0 0 0 0 0 0 0 16 18 38 9 26 18 19 28 4 7 14 5 4 14 11 8 7 55 49 60 13 5 4 5 33 100
0 0 0 0 0 6 12 21 14 4 0 0 0 0 0 0 0 0 0 0 3 4 0 0 6 12 11 3 32 0 0 0 0 0 2 77 94 58 48 28 8 10 6
0 0 0 0 0 0 5 0 0 0 0 0 0 0 0 0 0 0 0 0 0 0 0 0 0 6 17 16 5 35 16 2 0 0 0 0 8 100 21 14 5 77 83
0 0 0 0 0 0 0 2 11 18 14 5 11 26 8 0 0 0 0 0 0 0 0 0 0 0 0 4 2 0 1 0 22 0 0 0 0 10 100 10 5 2 47
0 0 0 0 0 0 0 2 1 22 14 5 0 12 0 0 0 0 0 0 0 0 0 0 0 0 0 0 6 16 0 3 9 14 0 0 0 0 6 99 18 2 0
0 0 0 0 0 0 0 0 11 4 0 0 0 0 0 0 0 0 0 0 0 0 0 0 0 0 0 0 0 2 3 7 2 1 9 0 0 0 0 0 97 38 1
0 0 0 0 0 1 1 5 2 0 0 2 0 0 0 0 0 0 0 0 0 0 0 0 0 0 0 0 0 3 0 0 0 0 23 2 6 0 0 0 1 24 5

GFSSE_prec_cloud_006.txt.gz
Cloud_Cover
79 100 100 100 100 98 98 100 100 100 100 100 100 100 100 100 100 100 100 100 100 100 100 5 5 5 3 0 0 1 49 56 100 100 90 38 4 0 5 2 0 0 2
93 100 100 100 100 100 100 100 100 100 100 100 100 100 100 90 81 100 87 100 100 90 38 6 5 0 0 0 0 0 2 91 100 100 100 100 42 3 31 2 0 3 0
100 71 100 100 100 99 100 92 100 86 100 100 100 100 100 93 100 100 100 93 92 1 5 4 1 0 0 0 0 1 5 100 84 100 92 99 100 42 8 0 0 5 9
70 73 96 84 94 100 100 100 100 100 96 100 80 5 73 100 100 100 40 9 2 3 5 0 5 0 0 0 0 0 36 100 80 92 89 100 21 100 36 0 16 0 5
24 20 90 72 100 72 88 36 9 18 82 86 100 100 100 100 68 7 5 0 0 5 0 5 3 0 0 1 0 0 99 90 5 41 99 68 41 100 60 5 19 0 8
92 95 54 100 100 56 14 6 100 100 100 100 100 85 3 1 0 0 0 0 0 5 2 5 3 0 0 0 0 2 100 83 5 6 95 56 10 80 5 2 2 0 0
96 91 96 100 100 86 100 100 100 100 82 80 20 0 0 0 0 0 0 1 3 0 7 6 0 0 0 0 0 1 5 6 100 42 53 96 53 80 15 6 1 19 0
13 1 1 9 77 59 86 92 100 74 0 0 33 14 5 2 4 1 2 5 5 5 54 11 0 5 0 2 9 0 46 5 100 10 9 55 77 99 74 87 5 5 5
10 3 5 5 66 64 5 1 0 0 0 0 84 43 7 18 5 5 5 4 5 26 68 95 5 27 5 3 12 3 4 97 100 69 33 34 10 54 100 99 72 1 11
69 53 98 97 13 0 0 1 0 0 2 2 4 0 0 4 3 1 100 5 10 100 100 100 21 85 41 98 97 100 100 71 44 100 25 82 44 49 100 100 99 17 6
23 26 16 11 19 10 3 0 0 0 0 0 0 0 0 2 2 5 6 98 66 98 97 100 100 64 100 100 68 10 80 81 84 43 98 94 70 100 92 96 87 77 2
28 55 23 14 22 22 4 0 0 0 0 0 0 0 0 0 0 4 5 15 70 33 91 8 53 100 100 97 99 27 27 14 90 72 66 12 96 100 100 84 94 79 7
1 11 22 27 20 25 20 18 23 14 6 6 0 0 0 0 0 0 0 23 57 100 55 5 5 14 39 88 100 100 29 5 5 20 99 99 98 100 100 100 99 44 15
16 13 4 18 31 28 27 28 20 21 18 11 4 0 6 47 5 2 0 0 3 5 5 5 7 34 91 41 99 100 100 95 9 16 16 75 14 54 100 100 100 100 97
12 6 1 15 26 16 24 21 22 30 17 3 8 1 6 20 11 0 0 1 1 0 1 3 24 96 100 76 100 100 100 100 99 16 22 36 3 5 54 100 100 100 100
0 0 0 2 16 20 24 10 18 11 6 8 4 0 0 24 16 0 0 0 0 0 0 0 2 0 0 2 96 100 100 95 100 87 85 60 63 41 41 98 100 100 100
0 0 0 0 9 15 8 15 15 6 7 6 0 0 0 10 23 8 14 0 0 0 0 0 0 0 0 0 0 6 100 100 100 100 82 5 35 44 100 85 99 100 100
0 0 0 0 0 6 2 6 4 10 9 6 0 0 0 0 0 1 22 18 0 0 11 7 0 0 0 0 0 0 0 70 100 100 100 100 18 100 5 91 69 100 100
0 0 0 0 0 0 7 10 6 0 0 0 0 0 0 0 0 6 20 7 0 17 32 13 0 4 2 0 0 0 0 0 0 49 98 100 100 57 34 7 25 5 99
0 0 0 0 0 5 7 10 13 6 0 1 0 0 0 0 0 9 17 11 34 39 25 28 35 30 15 13 4 0 0 0 0 0 3 15 99 100 98 7 5 5 86
0 0 0 0 0 6 18 32 28 22 8 0 2 0 0 0 0 2 19 0 14 3 0 0 24 29 2 18 27 0 0 0 0 0 0 0 0 21 100 100 35 8 5
0 0 0 0 0 0 12 11 0 4 8 4 0 0 0 0 0 0 0 0 0 6 0 0 1 2 23 37 22 36 14 0 0 0 0 0 0 0 0 80 100 62 70
0 0 0 0 0 0 1 20 30 23 24 28 21 17 10 0 0 0 0 0 0 0 0 0 1 0 0 9 32 3 1 0 29 0 0 0 0 0 0 0 28 100 48
0 0 0 0 0 0 8 4 1 26 26 11 1 14 8 0 0 0 0 0 0 5 4 0 5 0 0 0 16 41 21 44 30 1 0 0 0 0 0 0 0 4 80
0 0 0 0 0 0 0 0 0 10 4 0 0 7 0 0 0 0 0 0 0 5 5 5 2 0 0 2 3 8 8 19 41 6 0 0 0 0 0 0 0 0 2
0 0 0 0 0 0 0 0 0 0 0 0 0 16 0 0 0 0 0 0 5 10 43 5 5 0 1 0 1 8 29 49 5 4 8 0 0 0 0 0 0 0 0

GFSSE_prec_cloud_009.txt.gz
Cloud_Cover
100 73 98 100 100 95 98 97 96 93 98 100 100 100 100 100 100 100 100 82 100 83 4 1 4 0 5 0 4 66 70 52 100 97 86 13 15 19 19 1 0 2 1
88 100 100 100 100 100 100 100 100 100 100 100 100 100 100 100 92 100 100 100 15 5 0 0 1 0 1 0 2 0 32 100 100 100 100 100 5 6 6 0 0 0 1
84 99 100 86 100 100 100 100 100 100 100 100 100 100 86 76 100 100 99 11 2 0 0 5 2 0 0 0 0 4 5 98 100 100 100 37 100 56 5 0 13 0 2
92 35 33 98 100 100 100 100 80 83 100 100 92 58 100 100 100 51 0 0 0 0 0 5 0 0 0 0 0 5 24 93 100 100 100 79 24 78 65 5 1 4 4
60 9 5 5 5 38 96 100 46 82 86 69 100 100 94 25 0 1 4 0 0 0 2 0 0 0 0 0 0 1 12 92 100 100 98 100 86 100 34 5 0 2 1
100 100 99 19 90 36 100 100 65 100 100 100 100 56 5 5 6 5 0 0 0 0 5 5 0 0 0 0 0 0 5 100 96 100 92 82 100 9 5 68 1 0 6
54 90 77 54 100 86 100 98 94 45 11 2 4 6 68 20 5 0 4 5 2 5 7 5 1 1 0 2 0 5 5 88 95 78 78 40 97 18 43 100 66 0 0
14 32 31 2 15 8 3 62 18 2 0 0 0 5 5 5 1 5 11 5 5 5 5 74 13 19 4 5 5 5 54 85 69 96 97 65 71 52 64 100 23 5 2
8 32 54 36 8 5 14 2 0 0 0 0 0 5 5 4 1 5 100 5 5 56 99 17 77 76 84 58 65 5 5 5 60 70 16 87 100 100 94 100 89 4 2
41 38 31 27 23 31 0 0 0 0 0 0 0 2 0 0 1 5 5 13 5 38 76 96 17 55 99 28 45 99 9 8 22 94 43 98 100 97 98 100 100 72 4
36 34 45 26 27 5 0 0 0 0 0 0 0 0 0 0 0 4 5 4 6 12 72 100 5 62 66 100 40 10 37 91 98 91 97 98 91 100 98 100 100 95 68
10 37 46 45 4 0 1 0 0 0 0 0 0 0 0 2 0 0 0 0 1 3 6 14 60 94 50 90 100 100 61 32 8 45 73 5 48 100 100 100 100 100 73
0 8 22 33 16 0 1 0 3 0 0 0 0 0 4 0 0 0 0 0 0 0 0 1 4 3 70 100 100 100 100 96 40 5 27 48 25 100 100 100 100 100 100
0 0 2 6 20 4 0 0 0 0 0 0 0 0 0 2 0 0 0 0 0 0 0 0 0 0 0 0 18 92 100 100 100 60 5 18 69 98 100 100 100 100 100
0 0 0 2 14 17 0 0 0 0 0 0 0 0 0 0 0 0 0 0 0 0 0 0 0 0 0 0 0 0 36 100 100 100 49 46 69 13 74 100 100 100 100
0 0 0 12 31 20 2 2 0 0 0 0 0 0 0 0 0 0 0 0 0 0 0 0 5 0 0 0 0 0 0 3 100 100 100 66 96 100 82 11 100 100 100
0 0 0 0 1 11 0 0 0 0 0 0 0 0 0 0 0 0 2 0 0 0 0 0 14 4 0 0 0 0 0 0 0 100 100 100 99 81 94 100 100 100 100
0 0 0 0 0 0 0 0 0 0 0 0 0 0 0 4 6 0 4 0 0 0 0 3 15 6 3 0 0 0 0 0 0 0 92 100 100 100 100 100 95 96 100
0 0 0 0 0 1 10 0 4 0 1 0 0 0 0 0 0 0 0 0 0 0 0 13 19 0 0 0 0 0 0 0 0 0 0 39 100 100 100 100 79 95 97
0 0 0 0 0 0 16 0 1 0 0 0 0 0 0 6 0 0 0 1 6 20 4 0 16 5 2 0 0 0 0 0 0 0 0 0 0 76 100 100 100 80 87
0 0 0 0 0 0 0 0 0 0 0 0 0 0 0 0 0 0 0 38 1 0 2 26 6 5 1 8 0 0 0 0 0 0 0 0 0 0 4 100 100 100 99
0 0 0 0 0 0 0 5 1 0 0 2 7 2 0 0 0 0 0 0 0 0 0 5 6 2 0 27 12 3 0 2 6 0 0 0 0 0 0 0 9 77 100
0 0 0 0 0 0 2 37 23 10 6 0 2 13 1 0 0 0 0 0 0 0 0 23 5 9 2 21 39 8 4 4 2 0 5 0 0 0 0 0 0 3 32
0 0 0 0 0 0 20 7 2 0 4 32 23 2 4 2 0 0 0 0 0 0 0 7 5 6 14 5 6 46 38 12 0 0 0 4 0 0 0 0 0 0 0
0 0 0 0 0 0 2 0 0 6 13 26 0 1 29 37 18 0 0 0 0 0 0 24 16 5 5 7 5 5 6 5 9 4 0 2 13 1 0 0 0 0 0
0 0 0 0 0 0 0 0 0 0 4 3 0 0 0 1 0 0 0 0 0 5 5 5 14 46 100 77 7 52 6 7 5 5 5 0 0 0 0 0 0 0 0

GFSSE_prec_cloud_015.txt.gz
Cloud_Cover
100 100 100 100 100 100 100 100 100 80 100 100 100 100 100 98 100 93 100 100 56 4 0 0 0 2 5 5 5 5 2 7 11 0 0 0 0 0 0 0 4 66 4
75 85 88 93 99 100 100 100 100 100 100 100 100 100 69 30 100 100 100 15 0 1 0 0 3 0 0 5 5 5 2 15 39 5 5 2 0 0 0 0 84 7 4
96 81 100 89 34 74 100 100 100 100 100 89 41 34 100 100 100 4 5 5 5 0 0 2 5 3 0 2 5 5 28 92 100 5 5 68 50 4 5 0 0 22 5
100 97 87 72 5 40 86 100 100 71 7 5 48 98 71 21 0 2 4 1 5 0 0 2 5 0 4 0 5 5 71 16 99 82 15 95 78 5 5 0 2 24 0
99 80 63 89 83 72 100 52 25 36 41 2 4 1 0 0 0 4 0 2 0 0 0 0 5 5 5 2 3 5 12 5 91 100 39 45 81 13 2 0 2 0 3
100 61 100 100 100 100 97 44 79 10 3 4 0 0 0 0 0 2 0 0 0 5 6 4 5 10 5 1 8 1 5 62 100 100 100 9 21 41 9 2 0 5 1
100 100 97 90 100 100 100 98 16 2 4 0 0 0 0 0 4 5 1 5 5 10 52 42 33 42 6 4 0 12 3 4 100 100 100 98 12 5 5 5 0 0 4
100 77 49 100 21 1 3 6 3 0 0 0 0 0 0 0 0 5 2 29 18 5 100 39 68 4 5 5 7 0 3 5 96 95 100 71 100 10 99 5 24 0 4
50 62 53 8 5 6 6 0 0 1 0 0 0 0 0 0 0 0 3 1 2 5 9 5 5 69 78 5 9 76 3 3 42 25 78 100 74 84 53 84 60 6 1
92 23 22 14 5 1 0 0 0 0 0 0 0 0 0 0 0 0 0 0 0 2 2 4 5 5 5 5 5 5 72 38 100 99 54 47 87 98 94 100 100 54 11
94 7 76 36 13 35 11 9 0 0 0 0 0 0 0 54 74 36 34 0 0 0 0 0 0 0 0 3 52 100 100 54 96 97 71 100 86 89 100 100 100 100 100
98 40 100 97 56 18 8 0 0 0 0 2 5 2 0 100 57 38 5 0 0 0 0 0 0 0 21 76 78 15 92 92 100 98 71 93 100 100 100 100 100 100 100
0 80 32 30 94 24 84 0 19 23 32 12 24 4 17 87 99 63 84 85 51 2 94 31 66 37 70 37 23 88 29 0 36 98 100 66 33 38 100 100 100 100 99
10 20 34 31 41 10 91 25 58 70 54 67 15 3 16 5 100 12 88 100 68 100 80 54 77 96 29 97 83 73 64 19 0 66 82 100 67 13 96 100 100 100 100
4 15 7 0 0 2 64 20 93 42 29 94 34 10 70 66 92 7 63 3 70 36 48 76 96 80 34 96 68 76 40 9 0 0 23 64 100 32 5 97 100 100 100
0 0 1 7 3 14 13 34 8 100 100 30 100 100 100 73 71 97 94 67 32 47 56 100 97 64 31 90 72 79 0 0 0 0 0 0 18 98 5 5 96 99 100
0 0 1 2 11 1 0 6 12 84 44 100 92 100 35 13 0 0 45 53 100 44 16 9 10 23 70 9 5 0 0 5 0 0 0 0 0 4 99 5 8 96 100
0 0 0 0 0 9 40 32 40 90 100 96 64 100 28 73 46 22 27 90 100 86 72 60 30 68 21 32 0 0 0 0 7 0 14 0 0 0 20 100 24 11 100
0 1 0 0 1 1 11 18 29 100 100 88 98 13 100 14 82 72 57 81 1 3 3 2 24 92 0 0 0 0 2 25 6 50 0 0 24 14 13 2 96 47 38
0 0 1 2 17 0 61 15 69 41 45 43 56 73 0 0 17 40 62 17 15 72 2 28 64 0 0 0 3 0 0 40 11 71 61 33 0 33 87 29 6 55 19
0 0 0 0 0 0 2 5 11 100 91 90 38 100 26 0 34 2 2 59 35 10 100 74 0 0 0 46 0 78 15 4 77 20 58 7 2 5 22 100 100 100 51
0 0 0 0 0 0 6 0 43 76 33 12 2 13 3 86 46 7 1 30 36 83 0 0 0 0 1 19 11 4 79 89 100 93 8 6 5 7 9 12 34 6 33
0 0 0 0 0 0 0 10 1 12 0 7 15 8 0 0 4 2 17 5 27 0 0 0 10 5 13 13 0 19 30 97 62 70 17 24 13 5 5 5 10 2 0
0 0 0 0 0 0 0 20 10 0 0 0 0 0 10 23 0 45 26 6 0 0 0 0 0 18 0 9 6 0 3 5 5 63 94 51 40 5 5 5 5 5 0
0 0 2 0 0 0 0 0 2 0 0 0 0 0 0 0 0 0 2 0 1 0 0 2 3 0 0 0 0 12 5 0 5 74 71 100 95 22 34 2 0 11 5
0 0 0 0 0 0 0 0 0 13 0 0 0 0 0 0 0 0 0 0 0 0 15 4 4 0 6 1 0 0 1 5 30 47 86 100 100 67 28 8 3 0 17

GFSSE_prec_cloud_021.txt.gz
Cloud_Cover
96 100 100 100 100 100 100 100 100 100 86 100 81 99 100 100 14 0 3 5 0 0 1 2 4 12 12 7 3 0 0 0 4 3 0 0 0 0 0 0 14 4 0
34 86 100 96 98 100 100 100 13 5 8 100 100 100 100 12 0 0 4 5 0 0 0 5 5 10 5 5 5 5 4 2 2 5 7 0 0 0 0 0 0 3 0
5 47 100 100 100 100 100 59 0 4 6 89 100 89 10 1 0 0 0 0 0 0 0 36 5 4 14 0 0 0 0 5 4 77 42 4 3 0 0 0 4 1 0
54 46 70 100 100 70 53 46 99 18 68 5 5 98 1 0 0 0 0 0 0 6 8 47 38 3 4 4 0 0 0 5 5 31 3 3 5 0 2 0 0 0 0
76 22 5 4 2 0 100 100 40 24 46 94 100 2 0 0 0 0 0 2 12 6 35 54 14 1 0 0 0 0 1 5 16 22 5 5 5 5 0 0 0 0 0
33 11 5 5 48 4 5 5 100 100 100 16 0 0 0 0 0 0 0 2 4 8 16 14 44 1 0 0 1 2 6 5 100 99 99 66 5 5 38 21 24 10 0
24 5 88 73 100 100 100 100 100 1 0 0 0 0 0 0 0 0 0 0 0 0 0 0 2 30 5 1 0 2 18 99 100 100 100 100 100 26 2 14 16 0 12
5 78 64 86 100 50 51 8 0 0 0 0 0 0 0 0 0 0 0 0 0 0 0 0 0 0 4 4 3 0 82 91 100 100 100 100 100 81 10 5 69 59 28
5 5 0 5 2 23 0 0 0 0 0 0 0 0 0 0 0 0 0 0 0 0 0 0 0 0 0 0 0 4 82 100 100 100 100 100 100 100 45 8 5 92 31
0 0 0 0 0 0 0 0 0 0 0 0 0 0 0 0 0 0 0 0 0 0 0 0 0 0 0 0 0 18 73 100 100 100 100 100 100 100 99 5 5 88 99
0 0 0 0 0 0 0 0 0 0 0 0 0 0 0 0 44 15 0 1 0 0 0 0 0 0 1 0 0 100 90 99 100 100 100 100 100 100 95 5 5 16 81
0 0 0 0 0 0 0 0 0 0 0 0 0 0 41 4 10 5 84 4 0 2 3 0 0 1 0 0 0 69 31 3 100 100 100 100 100 100 100 100 8 16 7
0 0 0 0 0 0 0 0 0 0 0 0 0 0 5 99 82 5 9 2 3 0 0 0 2 20 1 15 1 0 56 0 38 97 100 100 100 100 100 100 32 5 5
3 81 0 0 0 0 0 0 0 0 0 5 5 2 5 1 14 18 0 0 18 0 51 14 13 0 98 0 46 0 10 22 0 0 2 13 3 64 100 100 100 96 63
0 0 0 0 0 0 0 0 0 0 4 6 51 4 0 3 10 0 3 49 29 62 73 100 100 0 0 0 0 0 30 1 9 32 0 0 0 0 4 4 59 96 91
0 0 0 0 0 0 0 0 97 100 71 37 37 68 85 1 0 0 0 79 100 61 100 22 33 0 0 0 100 96 6 0 34 1 0 0 0 0 0 2 1 100 100
0 0 0 0 0 0 0 0 11 100 42 60 72 0 3 0 0 0 0 0 0 24 97 61 91 0 96 100 22 1 1 0 0 35 2 0 0 0 0 0 0 32 100
0 0 0 0 0 0 0 0 0 0 0 2 2 0 9 7 0 0 0 0 11 100 25 0 0 2 0 0 0 0 0 76 13 97 0 2 0 0 0 0 0 0 82
0 0 0 0 0 2 0 0 0 0 0 6 0 6 11 0 1 0 0 0 0 76 0 0 0 0 0 0 0 0 0 5 88 1 45 4 2 21 0 0 0 0 0
0 0 0 5 5 1 0 1 0 0 0 12 0 0 47 0 0 0 0 0 0 0 0 0 48 81 0 0 0 0 0 0 0 12 100 19 0 56 100 5 1 16 2
0 0 5 0 0 0 0 0 1 5 0 0 0 24 0 24 0 0 0 0 0 4 3 65 0 0 0 0 0 54 0 18 91 77 0 4 2 4 2 5 12 27 97
0 0 0 0 0 0 0 0 0 0 0 0 3 13 84 16 0 0 0 0 0 13 3 7 0 0 0 5 0 0 6 56 72 98 97 31 0 4 9 53 5 2 7
0 0 0 0 0 0 0 0 0 0 0 0 3 100 59 12 34 0 0 0 0 0 0 0 0 0 0 0 0 0 1 0 100 38 94 16 1 3 8 100 5 16 24
0 0 0 0 0 0 0 0 0 0 0 0 85 0 17 8 0 0 0 0 0 5 30 0 0 2 68 5 0 0 0 0 0 54 39 2 13 6 5 77 75 19 7
0 0 0 0 0 0 0 0 0 0 0 0 16 0 0 0 0 0 0 0 0 0 0 0 0 2 3 2 5 0 0 22 3 3 1 0 49 14 99 100 6 55 54
0 0 0 0 0 0 0 0 0 0 0 0 0 0 0 0 0 0 0 0 0 0 0 0 0 1 0 0 0 0 0 0 0 0 4 2 5 4 22 100 100 88 9

GFSSE_prec_cloud_024.txt.gz
Cloud_Cover
100 97 75 93 100 100 59 62 100 85 47 14 72 21 6 100 100 47 5 5 0 2 4 5 92 5 27 35 3 1 5 5 5 4 0 0 1 0 6 14 1 0 0
94 83 39 99 100 100 100 62 100 100 5 99 76 5 6 81 35 0 0 0 0 12 6 7 82 5 39 9 30 5 7 5 100 94 5 2 0 6 0 5 2 0 2
32 7 11 84 100 100 100 92 5 39 100 89 85 31 99 7 0 0 0 0 2 7 6 75 92 64 8 7 5 5 5 4 5 56 0 2 0 1 1 2 0 2 10
40 35 18 4 21 69 98 38 78 41 16 22 97 93 0 0 0 1 1 0 7 21 63 63 64 4 5 5 6 5 20 45 5 5 4 5 5 8 3 0 3 0 0
7 7 5 2 0 2 8 6 5 36 91 96 5 0 0 0 0 0 0 0 0 3 2 4 96 24 0 4 5 22 36 100 100 96 51 52 40 18 11 5 0 8 17
23 5 5 6 16 70 100 100 100 100 91 0 0 0 0 0 0 0 0 0 0 0 0 0 6 5 2 0 2 6 93 100 100 100 100 93 100 100 39 20 6 3 0
11 44 25 32 61 100 100 72 59 4 0 0 0 0 0 0 0 0 0 0 0 0 0 0 0 5 5 2 5 80 100 100 100 100 100 100 100 100 100 33 16 23 0
3 1 5 1 4 6 7 63 0 0 0 0 0 0 0 0 0 0 0 0 0 0 0 0 0 0 0 1 21 66 12 100 98 100 97 100 100 100 100 100 94 99 4
0 3 0 0 2 0 0 0 0 0 0 0 0 0 0 0 0 0 0 0 0 0 0 0 0 0 6 2 96 100 100 100 97 100 100 98 100 100 100 100 100 98 21
0 0 0 0 0 0 0 1 0 0 0 0 0 0 0 0 0 0 0 0 0 0 0 0 0 0 0 9 100 100 100 100 100 71 100 100 98 100 100 100 100 100 88
0 0 0 0 0 0 0 0 0 0 0 0 0 0 1 5 4 28 4 1 0 0 0 0 0 0 1 16 38 1 50 100 100 100 100 100 100 100 100 100 100 100 80
0 0 0 0 0 0 0 0 0 0 0 0 0 5 5 4 3 5 0 1 0 0 0 3 0 0 0 0 0 0 1 53 100 100 100 100 100 100 100 100 100 100 100
0 0 0 0 0 0 0 0 10 0 0 0 0 5 3 2 0 0 2 0 0 1 2 0 4 50 7 0 0 21 61 3 2 84 100 100 100 100 100 100 100 100 100
0 0 0 0 0 0 0 0 0 0 5 5 2 0 0 0 0 0 1 0 2 1 85 25 8 42 38 44 100 1 8 31 3 0 0 0 0 0 89 100 100 100 100
0 0 0 0 0 0 0 0 0 4 1 0 0 0 0 0 0 0 0 30 34 76 63 55 98 93 0 0 0 2 6 0 10 0 0 0 0 0 1 82 100 100 100
0 0 0 0 0 0 0 0 0 0 12 24 69 0 91 3 1 0 0 28 90 66 100 100 50 0 1 55 68 44 2 0 0 0 1 0 0 0 0 0 11 97 100
0 0 0 0 0 0 0 0 14 100 100 43 52 3 0 0 0 0 0 0 0 2 96 98 35 45 98 19 0 0 0 0 96 70 5 0 0 0 0 0 0 4 98
0 0 0 0 0 0 0 0 0 52 100 45 0 0 0 0 0 0 0 0 0 3 96 0 0 0 0 0 0 0 18 99 78 6 0 5 1 2 0 0 0 0 3
0 0 0 0 0 0 0 0 0 0 34 9 0 0 1 10 0 0 0 0 0 0 32 0 0 0 0 0 0 0 0 67 69 9 80 5 3 19 5 0 0 0 0
0 0 0 0 0 0 0 0 0 0 0 0 0 0 0 1 0 0 0 0 0 0 0 0 0 5 0 0 0 0 0 2 0 2 100 1 5 72 98 1 0 14 4
0 0 0 0 0 0 0 0 0 0 0 0 0 0 0 0 0 0 0 0 0 0 0 0 0 0 0 0 0 0 5 0 0 9 50 23 0 3 20 5 4 5 84
0 4 5 0 0 0 0 0 0 0 0 0 0 0 0 2 22 0 0 0 0 0 0 0 0 0 0 1 0 0 9 1 18 76 91 74 1 0 0 23 59 5 4
0 0 0 0 0 0 0 0 0 0 0 0 0 0 95 75 0 0 7 0 0 0 0 0 0 0 0 0 0 0 0 0 53 80 0 91 0 0 0 0 14 48 33
0 0 0 0 0 0 0 0 0 0 0 0 0 0 0 0 38 0 0 0 0 0 0 0 0 0 0 0 0 0 0 0 0 0 0 34 0 1 6 0 0 93 69
0 0 0 0 0 0 0 0 0 0 0 0 0 70 0 0 0 0 0 0 0 0 0 0 1 5 5 5 4 0 1 0 0 0 0 0 0 9 5 5 71 5 78
0 0 0 0 0 0 0 0 0 0 0 0 0 0 11 0 0 0 0 0 0 0 0 4 5 14 36 5 5 5 5 4 0 0 0 0 0 5 3 2 5 88 100

GFSSE_prec_cloud_030.txt.gz
Cloud_Cover
100 100 100 100 100 98 100 100 91 100 100 77 5 0 6 21 1 0 0 0 0 0 0 37 7 5 2 17 5 40 28 5 2 5 0 1 9 36 49 2 0 12 2
100 100 100 100 95 7 6 77 98 50 0 0 0 3 0 0 9 0 0 0 0 0 0 1 38 4 5 5 5 77 100 68 2 4 5 3 12 5 5 5 5 6 12
98 11 98 99 97 47 0 0 0 0 4 4 5 2 0 0 4 0 1 0 0 0 14 2 3 9 5 70 38 75 79 25 19 84 16 98 100 36 96 6 17 5 1
18 5 4 23 16 4 5 5 5 60 5 3 0 0 0 0 0 0 0 0 0 0 0 3 4 4 62 100 100 100 92 98 88 98 9 49 100 100 100 92 22 7 21
10 3 1 4 3 5 5 84 100 5 4 3 0 0 0 0 0 0 0 3 0 0 0 3 5 3 0 4 72 98 44 84 100 52 84 48 100 99 100 87 100 73 5
4 0 0 0 1 1 1 5 12 0 0 0 0 0 0 0 0 0 0 7 1 0 4 4 4 0 0 0 0 5 100 100 100 12 96 81 100 100 77 62 100 100 7
4 0 1 0 0 0 0 1 0 0 0 0 0 0 0 0 0 0 0 0 0 16 0 0 0 0 2 70 38 73 100 90 72 72 63 87 100 100 100 83 99 100 96
0 0 0 0 0 0 0 0 0 0 0 0 0 0 0 0 0 0 0 0 0 3 3 2 1 2 11 71 28 32 67 61 80 40 83 98 99 100 100 100 100 100 100
0 0 1 0 0 13 0 0 0 0 0 0 0 0 1 3 5 0 3 0 0 0 0 0 1 5 5 4 3 30 100 10 100 96 63 23 100 100 100 100 100 100 100
0 0 0 0 0 0 0 0 0 0 0 0 0 3 4 1 0 0 0 2 0 0 0 0 4 3 0 0 0 0 10 99 91 48 12 51 99 99 100 100 100 100 100
33 23 4 0 0 0 0 0 0 0 0 0 3 0 4 0 0 0 0 0 0 1 2 2 5 3 0 0 0 0 0 0 0 0 1 5 5 6 92 98 100 100 100
53 67 10 4 0 5 0 0 0 0 0 2 0 0 0 0 0 0 0 0 0 0 2 0 0 1 0 0 0 0 0 0 0 0 0 0 4 4 60 100 100 98 100
24 59 37 11 8 12 6 5 11 0 3 0 0 0 0 0 0 0 3 0 0 0 0 0 1 6 61 1 84 36 17 0 0 0 0 0 0 98 52 100 98 100 100
27 24 42 22 35 25 10 15 12 12 7 6 0 0 0 0 0 5 1 0 0 3 96 46 9 90 0 42 24 43 0 0 0 0 0 0 0 5 42 99 5 82 98
5 15 31 32 46 36 11 24 25 22 12 0 0 0 0 4 0 0 0 0 24 72 74 92 100 14 0 0 12 10 99 1 0 0 0 0 0 0 0 5 5 10 89
0 0 3 25 24 28 8 15 16 22 3 0 0 0 0 1 2 0 0 28 41 56 56 100 39 44 33 73 5 0 0 2 3 0 0 0 0 0 0 0 9 89 99
0 0 0 0 0 13 2 0 12 0 0 0 0 0 0 0 0 0 0 0 0 2 0 81 8 25 99 81 55 0 0 0 91 0 0 0 0 0 0 0 0 0 48
0 0 0 0 0 0 0 0 0 0 0 0 0 21 85 0 0 0 0 0 0 0 0 37 94 0 0 50 100 0 0 51 84 0 0 0 0 0 0 0 0 5 5
0 0 0 0 0 0 0 0 0 0 0 0 57 12 32 14 0 0 0 0 0 0 0 71 4 0 0 6 48 0 4 98 96 17 0 0 0 0 0 0 0 2 3
0 0 0 0 0 0 0 0 0 0 0 0 7 0 0 0 0 0 0 0 0 0 0 0 0 0 0 0 0 0 1 3 4 88 0 0 0 0 0 0 0 0 0
0 0 0 0 0 0 0 0 0 0 0 0 0 0 0 0 0 0 0 0 0 0 0 0 0 0 0 0 0 0 0 0 0 0 2 0 0 0 0 0 0 0 42
0 0 0 0 0 0 0 0 0 0 0 0 0 0 0 0 0 0 2 0 0 0 0 0 0 0 0 0 0 0 0 0 0 0 86 4 0 0 0 0 0 0 0
0 0 0 0 0 0 0 0 1 0 0 0 0 0 0 0 0 0 82 0 0 0 0 0 1 0 4 0 0 0 0 1 0 0 76 0 7 0 0 0 4 2 0
0 0 1 0 0 0 0 0 0 0 0 0 0 0 0 0 0 0 0 0 0 0 0 4 5 5 5 3 0 2 5 5 5 14 7 0 0 15 0 0 0 3 5
0 0 3 0 0 0 0 0 0 0 0 0 0 0 0 0 0 0 19 0 0 0 0 4 5 5 5 4 3 0 0 5 5 5 5 5 2 0 0 4 5 5 5
0 0 0 0 0 0 0 0 0 0 0 0 0 0 0 0 0 0 0 0 0 0 0 0 2 3 5 5 4 5 1 1 5 25 5 1 0 0 4 5 3 2 2

GFSSE_prec_cloud_036.txt.gz
Cloud_Cover
100 100 100 100 100 83 95 6 94 100 0 0 0 0 0 0 2 4 2 0 0 6 3 3 4 3 1 3 4 3 1 5 5 12 4 5 76 2 0 0 5 7 2
100 100 100 100 49 24 5 50 78 2 0 2 0 11 0 0 0 0 0 0 0 3 5 7 4 5 4 5 8 13 24 47 49 33 66 5 12 9 5 5 16 0 0
100 100 100 49 50 6 6 5 0 0 5 0 8 0 0 2 0 3 0 0 0 2 5 2 5 9 7 5 7 6 5 16 60 49 10 100 38 12 6 20 87 10 10
100 70 44 4 5 0 4 0 0 0 0 0 0 0 5 0 0 0 0 8 0 0 2 0 2 5 5 5 55 88 90 32 100 100 80 100 95 14 56 5 58 99 6
78 100 32 0 0 0 0 0 0 0 0 0 5 5 1 0 0 0 0 0 0 0 0 0 5 5 5 5 7 95 100 100 100 100 90 100 84 30 99 96 5 97 64
100 100 4 0 3 0 0 0 0 0 5 2 3 0 0 1 1 0 0 0 0 0 0 2 5 5 58 13 23 57 100 100 100 100 99 100 100 50 100 100 100 84 100
100 81 1 0 0 0 0 0 1 4 0 3 0 2 1 1 5 0 0 7 0 0 0 0 0 4 4 6 22 100 92 100 100 66 94 80 89 93 100 100 99 100 100
97 37 0 0 0 0 0 1 0 0 0 0 0 9 0 0 0 0 0 0 0 0 0 0 0 0 0 0 1 4 1 4 61 65 99 100 78 100 100 100 91 99 100
62 14 0 0 0 0 2 0 0 0 3 2 5 5 0 0 0 0 0 0 0 0 0 0 0 0 0 0 0 0 0 1 48 24 47 44 12 100 83 94 99 98 100
54 3 0 0 0 0 0 0 0 0 0 5 3 0 0 0 0 0 0 0 0 0 0 0 0 0 0 0 0 0 0 5 68 35 5 8 86 88 37 100 100 100 93
38 1 0 0 0 0 0 0 0 0 2 0 0 0 2 65 83 85 4 0 0 0 0 0 0 0 0 0 0 0 6 45 38 72 90 5 65 50 6 66 91 93 100
31 0 0 0 0 0 0 0 0 0 0 0 41 12 96 24 19 24 2 0 0 0 0 0 0 2 100 89 23 8 98 5 30 50 82 5 16 41 66 100 47 39 71
3 0 0 0 0 0 0 0 0 0 0 0 14 14 44 33 24 81 92 81 87 5 100 76 91 75 76 0 12 17 8 0 1 10 6 4 6 100 70 64 5 5 79
3 0 0 0 0 0 0 0 0 0 0 0 0 0 13 34 11 19 92 53 23 82 1 14 3 2 100 26 18 0 0 41 16 1 0 0 1 9 80 42 8 4 13
0 0 0 3 2 0 0 0 0 0 0 0 0 0 7 34 33 51 19 80 35 2 1 42 9 12 44 76 61 55 1 4 9 37 26 0 0 0 0 4 7 5 13
0 0 0 0 0 0 0 0 0 0 0 0 0 0 0 4 5 30 38 82 53 100 93 0 4 69 52 61 54 44 9 19 9 5 23 0 0 0 0 0 1 4 6
0 0 0 0 0 0 0 0 0 0 0 0 0 0 0 0 1 0 1 45 34 0 0 8 0 10 11 41 28 98 0 5 39 14 5 59 18 0 0 0 0 0 1
0 0 0 0 0 0 0 0 0 0 0 0 0 0 0 0 0 0 76 56 90 1 0 10 6 96 34 12 44 22 12 20 0 3 8 36 30 86 4 0 0 0 0
0 0 0 0 0 0 0 0 0 0 0 0 0 0 0 0 0 0 28 49 0 51 15 19 35 2 0 2 10 9 26 80 41 51 33 16 12 61 93 0 0 0 0
0 0 0 0 0 0 0 1 0 0 0 0 0 0 0 0 0 0 17 2 1 55 66 96 2 0 0 0 0 0 89 68 99 98 47 34 35 65 80 26 4 15 0
0 0 0 0 0 0 0 0 0 0 0 0 0 0 0 0 0 0 6 4 0 7 12 13 1 0 2 0 0 3 4 5 51 87 66 99 12 61 29 18 41 33 35
0 0 0 0 0 3 0 0 0 0 0 0 0 0 0 0 0 0 1 26 12 16 1 5 0 0 0 0 12 93 94 10 17 42 82 60 49 29 95 98 4 1 5
0 0 0 0 0 2 0 0 0 0 0 0 0 0 0 0 0 0 3 14 12 0 42 11 6 0 2 0 0 45 68 100 4 0 6 58 88 92 97 100 56 7 18
0 0 0 0 0 6 0 0 0 0 0 0 0 0 0 0 0 0 0 0 3 17 22 3 6 0 0 0 0 0 7 12 75 9 0 29 6 29 86 97 57 42 99
0 0 0 0 0 0 0 0 0 0 0 0 0 0 0 0 0 0 0 0 0 0 1 0 9 0 0 0 0 0 0 0 2 14 52 6 3 3 12 52 55 17 48
0 0 0 0 0 0 0 0 0 0 0 0 0 0 0 0 0 0 0 0 0 0 1 8 17 6 0 0 0 0 0 0 0 5 5 5 28 23 19 20 58 8 80

GFSSE_prec_cloud_042.txt.gz
Cloud_Cover
90 100 82 99 22 6 0 0 0 0 0 0 0 0 0 0 0 0 0 0 0 0 5 5 3 0 3 0 0 4 0 0 5 4 3 0 0 0 2 3 57 5 0
78 80 24 24 13 0 5 1 0 0 0 0 0 0 0 6 8 0 0 2 5 1 9 7 2 0 2 1 1 0 0 5 13 13 5 5 1 0 0 2 100 70 46
46 48 6 5 5 5 0 0 0 0 0 0 0 0 0 0 0 0 0 0 5 5 5 5 0 5 5 8 3 2 5 8 99 100 96 12 4 3 5 75 93 100 89
5 5 7 1 4 5 0 0 0 0 0 0 0 0 0 2 1 11 10 9 14 2 5 2 5 5 5 6 5 97 28 97 97 100 100 100 5 5 16 100 97 11 83
21 5 5 39 6 9 0 0 0 0 0 0 0 0 0 2 2 0 6 2 3 4 0 0 0 4 3 9 54 100 100 100 100 100 100 100 56 5 6 54 81 9 100
77 13 16 16 7 1 0 0 0 0 0 0 0 0 0 2 0 0 0 0 0 0 4 2 4 4 83 92 93 25 100 100 99 99 53 98 98 51 75 96 36 4 35
100 23 5 5 5 0 0 0 0 0 0 1 0 0 0 0 4 0 0 0 0 0 0 0 0 1 4 0 0 0 5 5 87 59 90 98 80 71 100 100 100 2 5
100 5 12 4 2 0 0 0 0 0 3 13 0 0 0 0 0 2 0 0 0 0 0 0 0 0 0 0 0 4 5 5 93 80 14 5 39 13 99 44 39 5 3
78 1 7 12 0 0 0 0 0 0 0 10 0 0 0 0 0 0 0 0 0 0 0 0 0 0 0 0 0 0 0 0 6 78 5 3 17 7 5 11 64 32 30
100 5 1 0 4 0 0 0 0 0 0 0 0 4 0 0 0 0 0 0 0 0 0 40 31 6 71 0 0 3 3 93 50 35 5 35 5 5 5 5 8 22 100
89 0 0 0 0 0 0 0 0 0 0 1 100 100 5 0 0 3 0 5 1 0 5 0 0 2 0 14 0 0 0 99 86 70 5 6 5 4 5 5 5 9 93
100 0 0 0 0 0 0 0 0 0 0 52 100 100 0 46 39 8 39 100 100 1 9 97 1 58 18 1 28 88 0 18 0 47 1 0 5 5 5 4 4 40 100
93 0 0 0 0 0 0 0 0 0 3 100 100 93 100 76 79 100 96 100 100 19 32 60 47 95 54 98 98 1 83 100 25 0 0 0 5 0 4 0 0 4 91
26 10 1 0 0 29 0 0 0 0 98 3 31 33 58 23 100 94 60 100 95 68 40 69 17 1 0 43 48 28 100 100 93 0 2 0 2 2 3 1 3 6 5
16 60 35 0 0 40 99 0 12 56 11 96 0 0 26 28 90 76 100 58 38 31 97 48 73 24 100 30 66 5 43 72 4 100 1 0 0 0 1 4 4 5 6
63 77 3 0 0 0 0 12 100 11 27 95 56 0 0 84 43 99 69 82 51 16 15 5 23 59 42 53 72 5 88 9 2 17 100 0 0 0 0 0 1 0 4
20 0 51 0 0 0 0 0 7 4 94 0 96 0 0 1 11 0 84 71 100 0 0 98 0 36 70 34 62 6 60 12 96 1 45 30 0 0 0 0 0 0 2
4 0 0 0 0 0 0 0 0 0 11 99 16 0 0 0 92 100 92 67 91 50 12 10 100 36 29 4 18 6 100 12 28 94 100 41 7 6 22 0 0 0 0
0 0 0 0 0 0 0 0 0 0 0 1 13 11 0 0 6 99 100 100 5 45 95 40 59 99 9 82 100 78 36 98 100 59 97 100 5 90 40 9 38 10 30
0 0 0 0 0 0 0 0 0 0 0 0 1 4 0 0 0 5 76 29 56 100 21 38 33 0 0 27 100 97 16 80 100 37 86 89 68 53 92 77 15 94 100
0 0 0 0 0 0 0 0 0 0 0 0 0 0 0 0 0 0 3 89 1 0 4 0 64 30 0 0 34 99 1 0 49 100 100 100 100 100 93 78 94 100 100
0 0 0 0 0 0 0 0 0 0 0 0 0 0 0 6 5 0 77 1 93 53 3 0 0 4 25 0 80 100 59 66 83 3 7 0 100 100 100 100 100 100 100
0 0 0 0 0 0 0 0 0 0 0 0 0 0 0 1 95 0 53 3 35 2 4 1 0 29 61 0 15 93 11 88 87 0 1 52 21 26 100 100 100 100 100
0 0 0 0 0 0 0 0 0 0 0 0 0 0 0 0 1 0 0 1 0 10 0 0 0 0 0 0 0 5 0 2 75 82 78 2 0 0 10 100 100 100 99
0 0 0 0 0 0 0 0 0 0 0 0 0 0 0 3 0 0 0 2 0 0 4 0 0 0 0 0 0 0 0 2 32 52 56 14 13 0 3 38 100 100 92
0 0 0 0 0 0 0 0 0 0 0 0 0 0 0 0 0 0 0 18 0 0 0 0 0 0 0 0 0 0 0 5 5 5 78 58 52 2 5 93 100 100 100

GFSSE_prec_cloud_045.txt.gz
Cloud_Cover
26 54 40 16 13 7 4 0 0 0 8 0 0 0 0 0 0 0 0 0 0 0 2 3 0 0 0 0 3 0 0 2 0 2 3 0 0 0 0 16 35 34 2
84 5 3 0 43 5 5 0 0 0 1 0 0 0 2 0 0 0 0 0 0 2 2 4 0 0 5 0 0 5 4 5 5 37 19 5 1 0 0 21 100 28 7
45 2 1 0 3 69 5 0 0 8 0 0 0 0 0 0 0 0 0 6 1 3 5 1 1 0 1 1 2 5 5 28 82 100 63 7 1 1 5 30 14 5 74
4 4 0 0 4 32 4 0 6 0 0 0 0 0 0 0 0 0 10 8 1 5 5 0 0 4 20 9 5 100 16 68 42 100 88 79 98 3 72 26 5 15 81
17 0 5 5 3 5 0 0 0 0 0 0 0 1 3 0 0 0 0 0 0 3 6 0 0 5 5 11 47 95 100 90 70 77 54 91 58 5 45 5 95 4 19
0 2 5 4 4 5 0 0 0 0 0 0 0 4 5 3 0 0 2 0 0 0 0 0 0 5 99 100 71 11 100 40 5 14 5 27 63 12 50 95 18 3 5
5 5 5 3 4 1 0 0 0 0 0 0 0 10 0 6 0 11 0 0 0 0 0 0 0 2 0 0 0 3 2 1 32 5 16 5 5 100 69 83 53 2 4
0 1 4 11 2 0 0 0 0 0 0 0 0 0 0 0 0 0 0 0 0 0 0 0 0 0 0 0 0 0 0 19 31 4 5 5 5 5 5 6 6 9 4
5 0 0 2 0 0 0 0 0 0 6 4 0 0 0 0 0 0 0 0 0 0 2 2 0 1 0 0 0 0 2 6 6 5 5 2 5 5 5 74 80 74 100
0 0 0 0 0 0 0 1 0 0 17 85 4 0 0 1 33 4 0 5 13 1 0 2 0 0 0 0 0 0 0 4 5 5 5 4 5 5 5 5 5 61 100
0 0 0 0 0 0 0 0 0 1 100 77 1 23 19 96 50 39 1 54 98 5 0 0 0 4 0 0 0 1 4 50 58 0 0 5 2 4 5 5 5 42 96
0 0 0 0 0 0 0 0 0 5 98 100 100 60 100 100 100 100 74 0 0 1 3 0 14 19 85 0 0 0 0 0 0 0 0 0 0 0 1 0 5 54 9
0 0 0 0 0 0 0 0 0 5 6 77 97 100 100 100 100 16 39 2 0 3 58 2 58 21 1 2 10 100 33 79 49 27 0 0 0 0 0 0 4 5 5
0 0 0 0 0 0 0 0 0 0 5 100 100 100 100 83 91 1 100 14 70 7 5 5 0 1 45 6 0 91 99 55 94 0 0 0 4 0 0 0 0 3 5
0 0 0 0 0 0 0 0 0 0 1 72 23 5 12 14 2 19 52 4 8 63 0 49 37 47 16 30 12 2 96 52 0 48 0 0 0 0 0 0 0 0 0
0 0 0 0 0 0 0 0 0 0 99 24 49 100 94 31 10 11 4 7 68 0 0 0 37 82 97 22 5 12 30 64 8 1 20 0 0 0 0 0 0 0 7
0 0 0 0 0 0 25 0 0 0 11 100 78 13 2 4 4 1 6 33 16 9 0 1 23 1 0 0 4 5 3 16 4 5 32 5 67 2 5 8 4 2 0
0 0 0 0 0 0 0 0 1 0 46 39 0 28 3 47 90 13 1 19 5 0 41 36 2 68 29 42 76 14 16 3 42 99 99 43 82 88 21 61 21 5 5
2 0 0 0 0 0 0 0 0 0 1 65 99 27 71 72 92 44 10 3 0 36 42 0 23 7 13 93 100 74 4 94 68 47 81 94 44 98 93 5 17 32 4
3 0 0 0 0 0 0 0 0 0 0 0 17 5 27 100 72 9 0 0 12 6 52 56 50 13 32 29 61 83 5 92 1 38 89 100 81 84 86 97 29 74 84
0 0 0 0 0 0 0 0 0 0 0 0 0 0 0 10 73 2 0 6 3 0 0 0 14 0 0 0 1 38 0 100 78 100 0 55 100 51 52 100 87 91 96
0 0 0 0 0 0 0 0 0 0 0 0 0 0 5 4 46 98 8 1 2 2 0 0 0 0 0 0 10 99 0 0 4 15 43 0 0 97 89 100 77 91 51
0 0 0 0 0 0 0 0 0 0 0 0 0 0 5 22 22 39 20 0 0 1 0 8 0 0 11 0 0 26 0 45 12 9 1 0 3 3 100 30 42 83 25
0 0 0 0 0 0 0 0 0 0 0 0 0 0 0 97 1 0 1 0 0 0 0 0 0 0 0 0 0 0 5 6 3 0 40 11 5 1 59 98 70 65 85
0 0 0 0 0 0 0 0 0 0 0 0 0 0 0 0 0 0 0 0 0 0 0 0 0 0 0 0 0 0 0 2 2 0 0 11 3 2 5 46 52 94 77
0 0 0 0 0 0 0 0 0 0 0 0 0 0 0 0 0 0 0 5 0 0 0 0 0 0 0 0 0 0 0 0 0 1 63 43 100 62 9 58 100 80 49

GFSSE_prec_cloud_048.txt.gz
Cloud_Cover
32 16 2 1 0 3 5 5 0 0 0 0 0 0 0 0 0 0 0 2 5 1 4 4 0 0 0 0 0 9 4 5 3 4 13 20 4 11 10 4 67 73 16
12 2 0 0 5 5 5 0 0 0 0 0 4 0 0 0 0 1 0 0 3 5 9 0 0 0 0 0 0 0 0 0 5 100 68 9 0 0 18 100 100 4 5
100 100 0 3 5 5 0 0 0 0 0 12 0 0 0 1 18 0 0 0 0 1 33 2 11 6 3 2 5 6 49 10 84 98 20 8 4 5 96 100 64 44 5
98 9 1 0 5 1 0 3 0 0 0 0 0 0 1 0 3 20 0 0 0 6 6 8 8 4 4 5 5 16 88 100 99 100 68 16 5 88 70 6 5 3 3
5 5 1 5 5 3 0 1 0 0 19 0 0 0 0 2 0 0 0 0 0 0 6 0 0 0 1 5 4 56 100 94 36 72 79 65 84 11 5 5 7 43 0
1 0 5 5 0 3 0 0 0 0 5 0 0 2 0 0 4 0 0 2 7 0 0 0 0 26 99 15 1 5 90 100 42 31 5 34 97 37 58 6 5 1 0
12 0 5 1 0 0 0 0 0 0 0 0 0 1 5 1 0 0 0 2 4 0 0 0 0 0 0 0 5 5 5 32 5 5 5 3 5 17 42 7 5 0 1
14 3 12 0 0 0 0 0 0 11 0 6 1 3 2 3 0 0 0 0 0 0 0 0 5 1 0 0 0 4 10 1 0 0 1 3 4 3 4 6 5 5 1
9 20 11 0 0 0 0 0 15 100 0 9 0 16 48 0 0 0 0 2 0 0 0 2 1 0 3 2 0 0 5 5 5 3 0 5 4 1 34 5 5 5 67
6 3 0 0 0 0 0 1 15 48 5 5 28 100 99 7 0 25 8 0 0 0 0 0 0 0 0 0 9 0 91 13 1 19 29 58 5 4 24 5 5 54 81
19 1 1 0 0 0 0 1 8 52 22 50 100 100 100 97 14 7 17 0 0 0 0 0 0 0 0 0 1 2 21 8 0 0 1 2 1 0 15 9 17 47 100
22 2 0 0 0 0 0 4 58 94 78 100 100 100 96 84 6 0 0 0 0 0 5 4 0 0 0 2 27 0 14 2 0 0 0 0 0 0 1 5 15 50 97
0 0 0 0 0 0 0 1 12 94 92 78 14 36 100 45 5 4 2 4 4 6 5 6 5 6 0 0 100 1 55 4 0 0 0 0 0 0 0 4 5 93 59
0 0 0 0 0 0 0 1 8 20 83 90 5 5 0 3 1 0 0 3 1 5 5 4 5 5 0 0 0 17 5 86 0 0 1 0 0 0 0 0 0 3 5
0 0 0 0 0 0 0 3 25 100 89 13 3 2 4 0 0 0 5 0 0 0 1 16 0 1 52 21 0 56 0 26 4 1 12 5 5 5 12 0 0 0 0
0 0 0 0 0 0 0 0 23 98 6 44 38 2 0 0 0 0 1 5 1 0 0 0 0 79 39 87 2 2 0 0 3 2 5 3 4 5 14 87 4 2 10
0 0 0 0 0 0 0 0 0 5 100 45 4 0 1 0 0 1 5 4 1 0 0 0 0 6 0 1 2 96 54 22 100 17 7 90 3 1 0 42 5 6 11
0 0 0 0 0 0 0 0 0 3 2 0 4 4 0 0 0 0 0 0 0 0 0 0 0 0 0 28 1 23 5 5 8 73 46 97 15 5 4 5 16 6 28
0 0 0 0 0 0 0 0 0 0 0 5 46 6 5 5 0 0 0 0 0 0 0 0 0 0 8 100 99 8 55 78 24 67 57 74 97 19 87 55 5 67 37
0 0 0 0 0 0 0 0 0 0 3 40 100 100 69 68 0 0 0 0 0 0 57 0 13 0 6 17 100 12 14 6 54 19 71 4 81 68 100 80 5 34 7
0 0 0 0 0 0 0 0 0 0 0 5 63 100 100 54 1 0 5 3 1 0 0 0 0 0 0 4 0 0 94 60 100 0 0 0 10 100 89 93 100 80 16
0 0 0 0 0 0 0 0 0 0 0 0 0 13 13 5 15 16 16 2 1 0 0 0 0 0 0 0 98 62 2 0 64 0 0 0 21 60 100 98 100 17 90
0 0 0 0 0 0 0 0 0 0 0 0 0 0 1 5 16 6 4 0 0 0 0 0 0 0 0 0 52 0 0 0 0 5 0 0 1 8 46 7 99 100 100
0 0 0 0 0 0 0 0 0 0 0 0 0 5 4 5 4 0 0 0 0 0 0 0 0 0 0 0 0 0 0 0 0 0 0 0 0 4 83 98 77 100 61
0 0 0 0 0 0 0 0 0 0 0 0 0 0 5 2 0 0 0 3 5 0 0 0 0 0 0 0 0 0 0 0 0 0 0 0 0 0 9 99 99 61 95
0 0 0 0 0 0 0 0 0 0 0 0 0 0 0 0 0 0 0 1 0 0 0 0 0 0 0 0 0 0 0 0 0 0 0 0 0 0 1 13 86 43 96